This is the latest recevied weather packets stored in our database for station/object K5KHP. If no packets are shown the sender has not sent any weather packets the latest 10 day(s).
| Time | Temp. | Humidity | Pressure | Rain* | Wind** | Luminosity | Snow |
|---|---|---|---|---|---|---|---|
| 1777485280 | 21.11° C | 54% | 1015.9 hPa | 0 mm | - | 666 W/m² | - |
| 1777484977 | 21.11° C | 51% | 1016 hPa | 0 mm | - | 652 W/m² | - |
| 1777484674 | 20.56° C | 52% | 1015.9 hPa | 0 mm | - | 692 W/m² | - |
| 1777484370 | 20.56° C | 53% | 1015.8 hPa | 0 mm | - | 677 W/m² | - |
| 1777484066 | 20.56° C | 55% | 1016 hPa | 0 mm | - | 647 W/m² | - |
| 1777483763 | 20.56° C | 56% | 1016.1 hPa | 0 mm | - | 620 W/m² | - |
| 1777483460 | 20.56° C | 54% | 1016.1 hPa | 0 mm | - | 622 W/m² | - |
| 1777483154 | 20.56° C | 55% | 1016.1 hPa | 0 mm | - | 595 W/m² | - |
| 1777482852 | 20.56° C | 54% | 1016.1 hPa | 0 mm | - | 551 W/m² | - |
| 1777482547 | 19.44° C | 56% | 1016.1 hPa | 0 mm | - | 545 W/m² | - |
| 1777482245 | 19.44° C | 56% | 1016.3 hPa | 0 mm | - | 535 W/m² | - |
| 1777481942 | 19.44° C | 55% | 1016.3 hPa | 0 mm | - | 527 W/m² | - |
| 1777481640 | 19.44° C | 54% | 1016.2 hPa | 0 mm | - | 485 W/m² | - |
| 1777481336 | 18.89° C | 55% | 1016.2 hPa | 0 mm | - | 471 W/m² | - |
| 1777481033 | 19.44° C | 55% | 1016.1 hPa | 0 mm | - | 457 W/m² | - |
| 1777480729 | 18.89° C | 55% | 1016.4 hPa | 0 mm | - | 430 W/m² | - |
| 1777480426 | 18.89° C | 56% | 1016.2 hPa | 0 mm | - | 418 W/m² | - |
| 1777480122 | 18.89° C | 56% | 1016.4 hPa | 0 mm | - | 416 W/m² | - |
| 1777479819 | 18.33° C | 58% | 1016.1 hPa | 0 mm | - | 400 W/m² | - |
| 1777479516 | 18.89° C | 57% | 1016.4 hPa | 0 mm | - | 369 W/m² | - |
| 1777479213 | 18.33° C | 58% | 1016.4 hPa | 0 mm | - | 338 W/m² | - |
| 1777478910 | 18.33° C | 57% | 1016.4 hPa | 0 mm | - | 309 W/m² | - |
| 1777478606 | 18.33° C | 58% | 1016.4 hPa | 0 mm | - | 301 W/m² | - |
| 1777478303 | 18.89° C | 58% | 1016.5 hPa | 0 mm | - | 74 W/m² | - |
| 1777478000 | 18.89° C | 57% | 1016.4 hPa | 0 mm | - | 74 W/m² | - |
* Rain latest hour (hover to see other rain measurements)
** Current wind speed in m/s (hover to see current wind gust speed)